This demonstration page uses our WeatherBlox Daily Observations layout. Learn more.

Left ArrowRight Arrow

Hourly Observations for September 30, 2019

Temp ( °F °C ) Dew Point ( °F °C ) Humidity (%) Winds ( mph kmh ) Pressure ( in mb ) Visibility ( mi km ) Precip ( " mm )
12:53 am 00:53 Clear 76 24.4 65 18.3 69 69 NE 3 6 29.91 1013 10 16 0.00 0.00
1:53 am 01:53 Clear 75 23.9 68 20 79 79 SE 9 15 29.88 1012 10 16 0.00 0.00
2:53 am 02:53 Clear 74 23.3 65 18.3 74 74 ENE 6 9 29.88 1012 10 16 0.00 0.00
3:53 am 03:53 Clear 74 23.3 65 18.3 74 74 ENE 3 6 29.88 1012 10 16 0.00 0.00
4:53 am 04:53 Clear 74 23.3 66 18.9 76 76 ESE 6 9 29.88 1012 10 16 0.00 0.00
5:53 am 05:53 Clear 75 23.9 66 18.9 74 74 ESE 8 13 29.89 1012 10 16 0.00 0.00
6:53 am 06:53 Sunny 76 24.4 66 18.9 72 72 ESE 8 13 29.90 1013 10 16 0.00 0.00
7:53 am 07:53 Sunny 81 27.2 68 20 65 65 ESE 8 13 29.92 1013 10 16 0.00 0.00
8:53 am 08:53 Sunny 83 28.3 67 19.4 59 59 Calm 29.93 1013 10 16 0.00 0.00
9:53 am 09:53 Partly Cloudy 84 28.9 67 19.4 57 57 WSW 7 11 29.92 1013 10 16 0.00 0.00
10:53 am 10:53 Partly Cloudy 85 29.4 66 18.9 53 53 W 6 9 29.92 1013 10 16 0.00 0.00
11:53 am 11:53 Partly Cloudy 86 30 68 20 55 55 WSW 9 15 29.90 1013 10 16 0.00 0.00
12:12 pm 12:12 Partly Cloudy 86 30 66 19 52 52 WNW 9 15 29.90 1012 10 16 0.00 0.00
12:53 pm 12:53 Partly Cloudy 87 30.6 69 20.6 55 55 WNW 9 15 29.88 1012 10 16 0.00 0.00
1:53 pm 13:53 Partly Cloudy 86 30 71 21.7 61 61 W 12 19 29.86 1011 10 16 0.00 0.00
2:53 pm 14:53 Partly Cloudy 85 29.4 71 21.7 63 63 W 10 17 29.84 1011 10 16 0.00 0.00
3:53 pm 15:53 Mostly Cloudy 84 28.9 71 21.7 65 65 SW 9 15 29.84 1011 10 16 0.00 0.00
4:53 pm 16:53 Partly Cloudy 84 28.9 72 22.2 67 67 SW 10 17 29.83 1010 10 16 0.00 0.00
5:53 pm 17:53 Partly Cloudy 85 29.4 69 20.6 59 59 NNE 8 13 29.84 1011 10 16 0.00 0.00
6:53 pm 18:53 Partly Cloudy 82 27.8 65 18.3 56 56 E 14 22 29.86 1011 10 16 0.00 0.00
7:53 pm 19:53 Partly Cloudy 80 26.7 70 21.1 71 71 ESE 10 17 29.88 1012 10 16 0.00 0.00
8:53 pm 20:53 Mostly Cloudy 79 26.1 70 21.1 74 74 SSE 8 13 29.91 1013 10 16 0.00 0.00
9:11 pm 21:11 Partly Cloudy 79 26.1 71 21.7 77 77 SSE 13 20 29.92 1013 10 16 0.00 0.00
9:53 pm 21:53 Mostly Cloudy 77 25 71 21.7 82 82 SE 9 15 29.92 1013 10 16 0.00 0.00
10:53 pm 22:53 Mostly Clear 76 24.4 71 21.7 85 85 SSE 18 30 29.92 1013 10 16 0.00 0.00
11:53 pm 23:53 Mostly Cloudy 75 23.9 70 21.1 84 84 SE 15 24 29.92 1013 10 16 0.00 0.00

Powered by AerisWeather